Preview of NWS' New Version of Forecast
This preview is not operational and should not be used for support decisions.
Latest weather observations around

Kenai, Kenai Municipal Airport (PAEN)

Using International System of Units (Switch to English Units)
Date/ Time (AKDT) Wind (kph) Vis. (km) Weather Sky Cond. Temp (°C) Rel. Humidity Wind Chill (°C) Heat Index (°C) Pressure Precip. (cm)
Air Dwpt 6 hour Altimeter (hPa) Sea level (hPa) 1 hr 3 hr 6 hr
Max Min
Mar 19 01:53 S 24 16.09 Mostly Cloudy BKN046 1 -3     72% -4   1004.4 1004.5      
Mar 19 00:53 SSW 37 16.09 Cloudy and Windy OVC060 1 -2     82% -6   1003.1 1003.1      
Mar 19 00:15 SSW 30 16.09 Cloudy FEW008 SCT050 OVC060 1 -1     88% -6   1002.4        
Mar 18 23:53 SSW 32 16.09 Cloudy and Windy SCT040 BKN048 OVC060 1 -1     88% -5   1001.7 1001.9      
Mar 18 23:22 SSW 22 16.09 Cloudy BKN030 OVC048 2 -1     82% -3   1001.4        
Mar 18 22:53 SSW 22 16.09 Cloudy OVC025 2 0     88% -3   1000.7 1000.9      
Mar 18 22:19 SW 21 16.09 Cloudy FEW007 BKN019 OVC024 2 1     92% -3   1000        
Mar 18 22:11 SW 22 16.09 Cloudy FEW005 BKN012 OVC019 2 1     92% -3   1000        
Mar 18 21:53 SSW 26 16.09 Cloudy BKN005 BKN011 OVC017 2 1     92% -4   999.7 999.7     0
Mar 18 21:42   16.09 Cloudy BKN006 BKN020 OVC050 2 1     89%     999.3        
Mar 18 21:28   16.09 Cloudy FEW008 BKN020 OVC070 2 0     85%     999        
Mar 18 20:53 SSW 18 16.09 Cloudy SCT055 BKN070 OVC120 2 0     85% -2   998 998.2      
Mar 18 19:53 S 9 16.09 Cloudy SCT048 OVC065 3 0     79% 1   997 997.1      
Mar 18 18:53 SW 15 16.09 Cloudy OVC048 6 0     67% 3   995.9 996.1   0  
Mar 18 17:53 SSE 13 16.09 Cloudy BKN055 OVC075 9 -1     51% 7   995.3 995.4 0    
Mar 18 16:53 E 21 16.09 Cloudy BKN060 OVC085 8 -1     53% 5   994.9 995      
Mar 18 15:53 E 21 16.09 Mostly Cloudy BKN065 9 -1     51% 6   994.9 995      
Mar 18 14:53 SE 18 16.09 Mostly Cloudy BKN075 8 0     56% 5   995.6 995.7      
Mar 18 13:53 E 21 16.09 Cloudy OVC075 8 0     56% 5   995.9 996      
Mar 18 12:53 E 24 16.09 Clear CLR 8 0     58% 4   995.9 996.1      
Mar 18 11:53 E 15 16.09 Partly Cloudy SCT075 7 1     65% 4   995.6 995.9      
Mar 18 10:53 N 5 16.09 Mostly Cloudy BKN070 3 -1     78% 1   995.6 995.7      
Mar 18 09:53 NNE 9 16.09 Cloudy OVC070 2 -1     85% -1   994.9 995.2      
Mar 18 08:53 NNE 13 16.09 Mostly Cloudy SCT065 BKN085 2 -1     82% -2   994.6 994.8      
Mar 18 07:53 NNE 9 16.09 Cloudy OVC065 2 -1     85% -1   994.6 994.7      
Mar 18 06:53 NE 13 16.09 Cloudy OVC070 2 -1     85% -2   993.9 994.2      
Mar 18 05:53 NE 15 16.09 Mostly Cloudy SCT070 BKN090 2 0     85% -2   993.6 993.9      
Mar 18 04:53 E 13 16.09 Mostly Cloudy BKN090 3 0     79% 0   993.6 993.6      
Mar 18 03:53 ENE 9 16.09 Cloudy BKN046 OVC070 4 0     76% 2   993.2 993.4 0   0
Mar 18 02:53 NNW 5 16.09 Light Rain BKN046 OVC060 3 -1     76% 1   992.9 993.1 0    
Mar 18 01:53 NNW 8 16.09 Cloudy BKN060 OVC070 3 -1     78% 1   992.6 992.6      
Mar 18 00:53 WNW 5 16.09 Cloudy OVC065 3 -1     78% 1   992.2 992.5      
Mar 17 23:53 W 8 16.09 Cloudy OVC070 4 -1     72% 2   991.9 992      
Mar 17 22:53 Calm 16.09 Cloudy OVC100 3 -1     76%     991.5 991.8      
Mar 17 21:53 E 11 16.09 Partly Cloudy SCT110 3 -1     73% 0   991.9 992      
Mar 17 20:53 Calm 16.09 Clear CLR 2 -1     82%     991.5 991.8      
Mar 17 19:53 Calm 16.09 Clear CLR 3 -1     76%     991.2 991.3      
Mar 17 18:53 N 15 16.09 Clear CLR 3 -1     76% -1   990.9 991      
Mar 17 17:53 N 15 16.09 Clear CLR 4 -1     72% 0   990.9 990.9      
Mar 17 16:53 NNE 22 16.09 Clear CLR 3 -1     76% -1   990.5 990.9      
Mar 17 15:53 N 32 16.09 Partly Cloudy and Windy SCT080 4 -1     70% -1   991.2 991.3      
Mar 17 14:54 N 32 16.09 Clear and Windy CLR 3 -1     76% -2   991.5        
Mar 17 14:53 N 32 16.09 Partly Cloudy and Windy SCT060 3 -1     76% -2   991.5 991.8      
Mar 17 13:53 NE 28 16.09 Cloudy OVC065 4 -1     70% -1   992.9 993      
Mar 17 12:53 NNE 24 16.09 Cloudy OVC080 4 -2     67% -1   993.6 993.7      
Mar 17 11:53 NE 22 16.09 Mostly Cloudy BKN080 4 -1     70% -1   994.3 994.5      
Mar 17 10:53 NE 17 16.09 Mostly Cloudy SCT070 BKN080 3 -1     73% -1   995.6 995.9      
Mar 17 09:55 ENE 17 16.09 Cloudy FEW070 OVC110 5 0     70% 2   995.9        
Mar 17 09:53 ENE 17 16.09 Mostly Clear FEW100 5 0     70% 2   995.9 996.1      
Mar 17 08:53 ENE 15 16.09 Cloudy SCT070 OVC100 3 -1     76% -1   996.3 996.4      
Mar 17 07:53 NNE 18 16.09 Cloudy OVC075 3 -1     76% -1   996.6 996.9      
Mar 17 06:53 NNE 11 16.09 Cloudy FEW065 OVC095 2 -1     82% -1   997.3 997.4      
Mar 17 05:53 NNE 11 16.09 Mostly Cloudy BKN085 1 -1     85% -2   997.6 997.9      
Mar 17 04:53 NE 11 16.09 Cloudy FEW065 OVC090 2 -1     82% -2   998.3 998.3      
Mar 17 03:53 N 15 16.09 Cloudy BKN055 OVC070 2 -1     82% -2   998.3 998.4      
Mar 17 02:53 NNW 9 16.09 Cloudy OVC065 3 -1     76% 1   998.3 998.4      
Mar 17 01:53 NE 5 16.09 Cloudy OVC070 3 -1     78% 1   998 998.3      
Mar 17 00:53 ENE 15 16.09 Cloudy BKN095 OVC110 4 -1     70% 1   998 998.2      
Mar 16 23:53 E 17 16.09 Clear CLR 4 -1     72% 0   997.6 997.8      
Mar 16 22:53 E 11 16.09 Mostly Cloudy SCT065 SCT090 BKN120 4 -1     70% 2   997.6 997.8      
Mar 16 21:53 E 11 16.09 Cloudy OVC110 4 -1     72% 1   997.3 997.4      
Mar 16 20:53 E 9 16.09 Mostly Cloudy BKN120 4 -1     72% 2   996.6 996.7      
Mar 16 19:53 E 13 16.09 Cloudy OVC090 4 -1     70% 1   995.3 995.5      
Mar 16 18:53 E 15 16.09 Cloudy BKN080 OVC110 6 0     67% 3   993.9 994.2      
Mar 16 17:53 ESE 9 16.09 Cloudy BKN075 BKN090 OVC120 6 0     65% 4   992.9 993.2      
Mar 16 16:53 E 15 16.09 Cloudy OVC090 7 0     60% 5   991.9 992.1      
Mar 16 15:53 E 28 16.09 Mostly Cloudy BKN075 7 0     62% 2   990.9 991.2      
Mar 16 14:53 NNE 8 16.09 Cloudy BKN070 OVC100 3 -1     76% 1   990.9 991.2      
Mar 16 13:53 N 13 16.09 Cloudy BKN080 OVC110 3 -1     76% -1   990.9 991      
Mar 16 12:53 N 21 16.09 Cloudy OVC110 2 -1     79% -3   990.5 990.7      
Mar 16 11:53 N 21 16.09 Cloudy OVC090 2 -2     75% -3   990.2 990.4      
Mar 16 10:53 NNE 28 16.09 Cloudy OVC095 2 -2     75% -3   990.2 990.2      
Mar 16 09:53 N 30 16.09 Cloudy OVC060 2 -2     78% -4   989.8 989.9      
Mar 16 08:53 NNE 33 16.09 Cloudy and Windy OVC070 2 -2     75% -5   989.5 989.8      
Mar 16 07:53   16.09 Cloudy OVC075 2 -2     75%     989.5 989.8      
Mar 16 06:53   16.09 Cloudy OVC070 2 -2     75%     990.2 990.5      
Mar 16 05:53 NNE 32 16.09 Cloudy and Windy OVC070 2 -2     73% -4   990.5 990.5      
Mar 16 04:53 NNE 30 16.09 Cloudy OVC080 2 -2     73% -4   991.2 991.3      
Mar 16 03:53   16.09 Clear CLR 2 -2     73%     992.2 992.2      
Mar 16 02:53 N 33 16.09 Mostly Cloudy and Windy BKN080 1 -2     79% -5   992.6 992.8      
May 14 13:53 SSW 22 16.09 Partly Cloudy SCT090 9 3     63% 6   1011.9 1012.1      
May 14 02:53 S 13 16.09 Cloudy OVC110 6 1     70% 3   1008.1 1008.4      
May 13 11:53 N 24 16.09 Mostly Clear FEW030 9 1     58% 6   1011.9 1012.1      
May 13 08:53 NNE 21 16.09 Clear CLR 4 3     89% 0   1015.2 1015.5      
May 13 01:12 N 5 16.09 Clear CLR 2 2     100% 1   1020.7        
May 11 19:53 SSE 24 16.09 Mostly Cloudy BKN085 9 0     52% 6   1013.9 1014.2      
May 11 16:53 S 28 16.09 Mostly Cloudy FEW050 SCT080 BKN095 11 -1     46%     1012.5 1012.6      
May 11 14:53 SW 17 16.09 Cloudy BKN050 OVC070 8 3     73% 5   1011.5 1011.7 0    
Jun 11 10:53 SE 13 16.09 Cloudy OVC080 12 4     61%     1008.8 1009      
Jun 11 09:53 W 8 16.09 Cloudy OVC080 11 6     74%     1008.8 1008.7      
Jun 10 08:53 Calm 4.83 Fog/Mist SCT002 9 9     100%     1008.5 1008.8      
Notice The following observation data may not be complete
Jun 09 13:21   16.09 Light Rain FEW004 OVC095          %         0    
Jun 06 09:53 NNE 24 16.09 Clear CLR 11 7     74%     1009.2 1009.1      
Jun 05 17:53 N 30 16.09 Clear CLR 13 7     69%     1008.5 1008.6      
Jun 05 12:53 Calm 16.09 Light Rain OVC055 8 7     90%     1009.8 1010.1 0 0